| time (UTC) | temp C | wind direction | speed KPH | gust KPH | rain 1hr cm | rain 24hr cm | rain mn cm | humidity % | barometer mb |
| 20260508040016 | 13 | 0.0 | 1.6 | 0.00 | 0.03 | 0.00 | 82 | 1011.1 | |
| 20260508035016 | 13 | 0.0 | 1.6 | 0.00 | 0.03 | 0.00 | 84 | 1011.0 | |
| 20260508034017 | 12 | 0.0 | 1.6 | 0.00 | 0.03 | 0.00 | 85 | 1010.9 | |
| 20260508033016 | 12 | 0.0 | 0.0 | 0.00 | 0.03 | 0.00 | 85 | 1010.8 | |
| 20260508032037 | 12 | 0.0 | 0.0 | 0.00 | 0.03 | 0.00 | 85 | 1010.9 | |
| 20260508031016 | 12 | 0.0 | 3.2 | 0.00 | 0.03 | 0.00 | 86 | 1011.0 | |
| 20260508030037 | 12 | 0.0 | 3.2 | 0.00 | 0.03 | 0.00 | 86 | 1010.9 | |
| 20260508025016 | 12 | 0.0 | 4.8 | 0.00 | 0.03 | 0.00 | 85 | 1010.9 | |
| 20260508024016 | 12 | 0.0 | 0.0 | 0.00 | 0.03 | 0.00 | 86 | 1010.9 | |
| 20260508023016 | 12 | 0.0 | 3.2 | 0.00 | 0.03 | 0.00 | 85 | 1011.1 | |
| 20260508022016 | 12 | 0.0 | 0.0 | 0.00 | 0.03 | 0.00 | 85 | 1011.2 | |
| 20260508021016 | 12 | 315 | 1.6 | 4.8 | 0.00 | 0.03 | 0.00 | 85 | 1011.2 |
| 20260508020016 | 12 | 0.0 | 4.8 | 0.00 | 0.03 | 0.00 | 84 | 1011.2 | |
| 20260508015016 | 13 | 0.0 | 3.2 | 0.00 | 0.03 | 0.00 | 85 | 1011.3 | |
| 20260508014016 | 12 | 0.0 | 3.2 | 0.00 | 0.03 | 0.00 | 85 | 1011.5 | |
| 20260508013016 | 12 | 0.0 | 0.0 | 0.00 | 0.05 | 0.00 | 84 | 1011.5 | |
| 20260508012016 | 13 | 0.0 | 3.2 | 0.00 | 0.05 | 0.00 | 83 | 1011.6 | |
| 20260508011016 | 13 | 0.0 | 1.6 | 0.00 | 0.05 | 0.00 | 82 | 1011.7 | |
| 20260508010016 | 13 | 315 | 1.6 | 4.8 | 0.00 | 0.08 | 0.00 | 83 | 1011.6 |
| 20260508005036 | 12 | 0.0 | 0.0 | 0.00 | 0.10 | 0.00 | 83 | 1011.7 | |
| 20260508004016 | 13 | 0.0 | 0.0 | 0.00 | 0.10 | 0.00 | 82 | 1011.9 | |
| 20260508003036 | 13 | 0.0 | 0.0 | 0.00 | 0.13 | 0.00 | 81 | 1012.0 | |
| 20260508002016 | 13 | 0.0 | 4.8 | 0.00 | 0.15 | 0.00 | 81 | 1012.0 | |
| 20260508001036 | 13 | 0.0 | 3.2 | 0.00 | 0.15 | 0.00 | 81 | 1012.1 | |
| 20260508000016 | 13 | 0.0 | 0.0 | 0.00 | 0.18 | 0.00 | 80 | 1012.2 | |
| 20260507235015 | 14 | 0.0 | 1.6 | 0.00 | 0.18 | 0.00 | 77 | 1012.2 | |
| 20260507234016 | 15 | 0.0 | 0.0 | 0.00 | 0.18 | 0.00 | 76 | 1012.3 | |
| 20260507233016 | 15 | 0.0 | 3.2 | 0.00 | 0.18 | 0.00 | 77 | 1012.3 | |
| 20260507232016 | 14 | 0.0 | 1.6 | 0.00 | 0.20 | 0.00 | 77 | 1012.4 | |
| 20260507231018 | 15 | 0.0 | 3.2 | 0.00 | 0.20 | 0.00 | 76 | 1012.9 | |
| 20260507230018 | 15 | 0.0 | 0.0 | 0.00 | 0.20 | 0.00 | 75 | 1013.0 | |
| 20260507225018 | 15 | 0.0 | 0.0 | 0.00 | 0.23 | 0.00 | 74 | 1013.3 | |
| 20260507224017 | 16 | 0.0 | 3.2 | 0.00 | 0.23 | 0.00 | 73 | 1013.2 | |
| 20260507223017 | 16 | 0.0 | 3.2 | 0.00 | 0.23 | 0.00 | 72 | 1013.1 | |
| 20260507222017 | 16 | 315 | 6.4 | 9.7 | 0.00 | 0.23 | 0.00 | 72 | 1013.0 |
| 20260507221017 | 16 | 315 | 3.2 | 8.0 | 0.00 | 0.23 | 0.00 | 71 | 1013.0 |
| 20260507220017 | 16 | 315 | 6.4 | 11.3 | 0.00 | 0.23 | 0.23 | 72 | 1012.9 |
| 20260507215017 | 16 | 315 | 8.0 | 14.5 | 0.00 | 0.23 | 0.23 | 71 | 1012.9 |
| 20260507214017 | 16 | 270 | 8.0 | 11.3 | 0.00 | 0.23 | 0.23 | 70 | 1012.9 |
| 20260507213038 | 16 | 248 | 4.8 | 8.0 | 0.00 | 0.23 | 0.23 | 69 | 1013.0 |
| 20260507212017 | 16 | 0.0 | 0.0 | 0.00 | 0.23 | 0.23 | 72 | 1012.9 | |
| 20260507211017 | 16 | 0.0 | 0.0 | 0.00 | 0.23 | 0.23 | 71 | 1013.0 | |
| 20260507210019 | 16 | 0.0 | 0.0 | 0.00 | 0.23 | 0.23 | 70 | 1013.1 | |
| 20260507205017 | 17 | 225 | 4.8 | 6.4 | 0.00 | 0.23 | 0.23 | 68 | 1013.0 |
| 20260507204017 | 17 | 225 | 4.8 | 9.7 | 0.00 | 0.23 | 0.23 | 68 | 1012.9 |
| 20260507203017 | 17 | 225 | 4.8 | 8.0 | 0.00 | 0.23 | 0.23 | 67 | 1012.8 |
| 20260507202017 | 17 | 225 | 1.6 | 4.8 | 0.00 | 0.23 | 0.23 | 69 | 1012.8 |
| 20260507201017 | 16 | 225 | 3.2 | 4.8 | 0.00 | 0.23 | 0.23 | 71 | 1013.0 |
| 20260507200017 | 17 | 225 | 1.6 | 4.8 | 0.00 | 0.23 | 0.23 | 67 | 1012.9 |
| 20260507195017 | 17 | 225 | 6.4 | 6.4 | 0.00 | 0.23 | 0.23 | 64 | 1012.9 |
| 20260507194017 | 18 | 225 | 4.8 | 6.4 | 0.00 | 0.23 | 0.23 | 63 | 1012.8 |
| 20260507193017 | 18 | 225 | 3.2 | 4.8 | 0.00 | 0.23 | 0.23 | 63 | 1012.7 |
| 20260507192037 | 18 | 225 | 3.2 | 4.8 | 0.00 | 0.23 | 0.23 | 62 | 1012.6 |
| 20260507191017 | 18 | 225 | 6.4 | 9.7 | 0.00 | 0.23 | 0.23 | 61 | 1012.6 |
| 20260507190016 | 18 | 225 | 4.8 | 6.4 | 0.00 | 0.23 | 0.23 | 60 | 1012.5 |
| 20260507185017 | 18 | 225 | 4.8 | 8.0 | 0.00 | 0.23 | 0.23 | 60 | 1012.6 |
| 20260507184017 | 19 | 225 | 4.8 | 6.4 | 0.00 | 0.23 | 0.23 | 59 | 1012.7 |
| 20260507183016 | 20 | 225 | 3.2 | 6.4 | 0.00 | 0.23 | 0.23 | 58 | 1012.7 |
| 20260507182017 | 20 | 225 | 3.2 | 6.4 | 0.00 | 0.23 | 0.23 | 57 | 1012.7 |
| 20260507181017 | 21 | 0.0 | 0.0 | 0.00 | 0.23 | 0.23 | 53 | 1012.7 | |
| 20260507180017 | 21 | 225 | 1.6 | 4.8 | 0.00 | 0.23 | 0.23 | 52 | 1012.5 |
| 20260507175016 | 21 | 225 | 1.6 | 4.8 | 0.00 | 0.23 | 0.23 | 51 | 1012.4 |
| 20260507174016 | 22 | 225 | 1.6 | 9.7 | 0.00 | 0.23 | 0.23 | 50 | 1012.5 |
| 20260507173016 | 22 | 0.0 | 3.2 | 0.00 | 0.23 | 0.23 | 49 | 1012.3 | |
| 20260507172016 | 22 | 225 | 3.2 | 9.7 | 0.00 | 0.23 | 0.23 | 48 | 1012.3 |
| 20260507171016 | 22 | 225 | 1.6 | 8.0 | 0.00 | 0.23 | 0.23 | 48 | 1012.3 |
| 20260507170017 | 23 | 225 | 3.2 | 8.0 | 0.00 | 0.23 | 0.23 | 48 | 1012.3 |
| 20260507165017 | 23 | 225 | 3.2 | 8.0 | 0.00 | 0.23 | 0.23 | 50 | 1012.2 |
| 20260507164017 | 23 | 225 | 1.6 | 6.4 | 0.00 | 0.23 | 0.23 | 50 | 1012.3 |
| 20260507163017 | 23 | 248 | 4.8 | 11.3 | 0.00 | 0.23 | 0.23 | 50 | 1012.2 |
| 20260507162017 | 22 | 248 | 6.4 | 16.1 | 0.00 | 0.23 | 0.23 | 52 | 1012.2 |
| 20260507161037 | 23 | 203 | 3.2 | 9.7 | 0.00 | 0.23 | 0.23 | 50 | 1012.3 |
| 20260507160017 | 23 | 203 | 1.6 | 8.0 | 0.00 | 0.23 | 0.23 | 52 | 1012.4 |
| 20260507155017 | 23 | 180 | 1.6 | 6.4 | 0.00 | 0.23 | 0.23 | 52 | 1012.6 |
| 20260507154017 | 23 | 0.0 | 4.8 | 0.00 | 0.23 | 0.23 | 51 | 1012.6 | |
| 20260507153017 | 23 | 180 | 1.6 | 9.7 | 0.00 | 0.23 | 0.23 | 52 | 1012.6 |
| 20260507152037 | 23 | 203 | 1.6 | 8.0 | 0.00 | 0.23 | 0.23 | 51 | 1012.6 |
| 20260507151016 | 23 | 225 | 1.6 | 3.2 | 0.00 | 0.23 | 0.23 | 51 | 1012.6 |
| 20260507150017 | 23 | 225 | 3.2 | 8.0 | 0.00 | 0.23 | 0.23 | 51 | 1012.7 |
| 20260507145037 | 22 | 0.0 | 4.8 | 0.00 | 0.23 | 0.23 | 54 | 1012.7 | |
| 20260507144016 | 22 | 0.0 | 4.8 | 0.00 | 0.23 | 0.23 | 53 | 1012.9 | |
| 20260507143016 | 22 | 225 | 1.6 | 8.0 | 0.00 | 0.23 | 0.23 | 56 | 1012.9 |
| 20260507142016 | 22 | 225 | 1.6 | 6.4 | 0.00 | 0.23 | 0.23 | 55 | 1013.0 |
| 20260507141017 | 22 | 203 | 1.6 | 8.0 | 0.00 | 0.23 | 0.23 | 55 | 1013.1 |
| 20260507140016 | 22 | 203 | 1.6 | 11.3 | 0.00 | 0.23 | 0.23 | 55 | 1013.3 |
| 20260507135016 | 21 | 315 | 3.2 | 12.9 | 0.00 | 0.23 | 0.23 | 58 | 1013.4 |
| 20260507134017 | 22 | 225 | 1.6 | 9.7 | 0.00 | 0.23 | 0.23 | 57 | 1013.4 |
| 20260507133016 | 21 | 248 | 8.0 | 16.1 | 0.00 | 0.23 | 0.23 | 59 | 1013.5 |
| 20260507132036 | 21 | 248 | 6.4 | 14.5 | 0.00 | 0.23 | 0.23 | 60 | 1013.6 |
| 20260507131016 | 21 | 248 | 4.8 | 12.9 | 0.00 | 0.23 | 0.23 | 59 | 1013.7 |
| 20260507130016 | 21 | 248 | 1.6 | 8.0 | 0.00 | 0.23 | 0.23 | 61 | 1013.8 |
| 20260507125016 | 21 | 248 | 6.4 | 14.5 | 0.00 | 0.23 | 0.23 | 59 | 1013.8 |
| 20260507124036 | 22 | 225 | 3.2 | 12.9 | 0.00 | 0.23 | 0.23 | 59 | 1013.8 |
| 20260507123016 | 22 | 225 | 3.2 | 6.4 | 0.00 | 0.23 | 0.23 | 56 | 1013.8 |
| 20260507122016 | 22 | 225 | 1.6 | 8.0 | 0.00 | 0.23 | 0.23 | 55 | 1013.7 |
| 20260507121056 | 22 | 0.0 | 6.4 | 0.00 | 0.23 | 0.23 | 55 | 1013.9 | |
| 20260507120016 | 22 | 248 | 4.8 | 11.3 | 0.00 | 0.23 | 0.23 | 55 | 1014.0 |
| 20260507115016 | 22 | 0.0 | 6.4 | 0.00 | 0.23 | 0.23 | 57 | 1014.0 | |
| 20260507114036 | 22 | 158 | 1.6 | 9.7 | 0.00 | 0.23 | 0.23 | 59 | 1014.0 |
| 20260507113016 | 21 | 180 | 1.6 | 4.8 | 0.00 | 0.23 | 0.23 | 61 | 1014.1 |
| 20260507112056 | 22 | 180 | 1.6 | 4.8 | 0.00 | 0.23 | 0.23 | 58 | 1014.1 |
| 20260507111056 | 22 | 135 | 1.6 | 6.4 | 0.00 | 0.23 | 0.23 | 59 | 1014.2 |
| 20260507110016 | 21 | 135 | 1.6 | 9.7 | 0.00 | 0.23 | 0.23 | 62 | 1014.2 |
| 20260507105016 | 21 | 180 | 1.6 | 6.4 | 0.00 | 0.23 | 0.23 | 58 | 1014.2 |
| 20260507104036 | 22 | 0.0 | 6.4 | 0.00 | 0.23 | 0.23 | 61 | 1014.5 | |
| 20260507103016 | 21 | 113 | 1.6 | 9.7 | 0.00 | 0.23 | 0.23 | 62 | 1014.5 |
| 20260507102016 | 20 | 135 | 1.6 | 6.4 | 0.00 | 0.23 | 0.23 | 64 | 1014.6 |
| 20260507101015 | 21 | 0.0 | 3.2 | 0.00 | 0.23 | 0.23 | 65 | 1014.6 | |
| 20260507100015 | 20 | 203 | 1.6 | 9.7 | 0.00 | 0.25 | 0.23 | 67 | 1014.6 |
| 20260507095018 | 19 | 0.0 | 0.0 | 0.00 | 0.25 | 0.23 | 69 | 1014.5 | |
| 20260507094017 | 18 | 248 | 3.2 | 9.7 | 0.00 | 0.25 | 0.23 | 72 | 1014.5 |
| 20260507093037 | 19 | 270 | 1.6 | 6.4 | 0.00 | 0.25 | 0.23 | 72 | 1014.6 |
| 20260507092018 | 19 | 0.0 | 3.2 | 0.00 | 0.25 | 0.23 | 72 | 1014.7 | |
| 20260507091037 | 18 | 270 | 3.2 | 9.7 | 0.00 | 0.25 | 0.23 | 78 | 1014.7 |
| 20260507090017 | 18 | 270 | 3.2 | 9.7 | 0.00 | 0.25 | 0.23 | 77 | 1014.7 |
| 20260507085018 | 18 | 203 | 3.2 | 8.0 | 0.03 | 0.25 | 0.23 | 75 | 1014.8 |
| 20260507084037 | 18 | 203 | 1.6 | 9.7 | 0.03 | 0.25 | 0.23 | 74 | 1014.7 |
| 20260507083037 | 18 | 0.0 | 8.0 | 0.03 | 0.25 | 0.23 | 76 | 1014.6 | |
| 20260507082017 | 18 | 0.0 | 4.8 | 0.03 | 0.25 | 0.23 | 79 | 1014.7 | |
| 20260507081017 | 17 | 158 | 3.2 | 9.7 | 0.03 | 0.25 | 0.23 | 79 | 1014.8 |
| 20260507080017 | 17 | 0.0 | 4.8 | 0.03 | 0.25 | 0.23 | 83 | 1014.7 | |
| 20260507075017 | 17 | 135 | 3.2 | 9.7 | 0.00 | 0.23 | 0.20 | 82 | 1014.6 |
| 20260507074157 | 17 | 135 | 4.8 | 9.7 | 0.00 | 0.23 | 0.20 | 83 | 1014.5 |
| 20260507073017 | 16 | 135 | 1.6 | 8.0 | 0.00 | 0.23 | 0.20 | 86 | 1014.5 |
| 20260507072017 | 16 | 113 | 1.6 | 6.4 | 0.00 | 0.23 | 0.20 | 86 | 1014.4 |
| 20260507071017 | 15 | 113 | 3.2 | 8.0 | 0.00 | 0.23 | 0.20 | 88 | 1014.6 |
| 20260507070017 | 15 | 113 | 1.6 | 4.8 | 0.00 | 0.23 | 0.20 | 87 | 1014.5 |
| 20260507065037 | 15 | 113 | 1.6 | 6.4 | 0.00 | 0.23 | 0.20 | 88 | 1014.5 |
| 20260507064037 | 15 | 0.0 | 1.6 | 0.00 | 0.23 | 0.20 | 88 | 1014.5 | |
| 20260507063017 | 15 | 0.0 | 1.6 | 0.00 | 0.23 | 0.20 | 89 | 1014.4 | |
| 20260507062017 | 14 | 0.0 | 1.6 | 0.00 | 0.23 | 0.20 | 90 | 1014.4 | |
| 20260507061017 | 14 | 0.0 | 3.2 | 0.00 | 0.23 | 0.20 | 90 | 1014.4 | |
| 20260507060017 | 14 | 113 | 1.6 | 4.8 | 0.00 | 0.23 | 0.20 | 90 | 1014.4 |
| 20260507055017 | 13 | 113 | 1.6 | 4.8 | 0.00 | 0.23 | 0.20 | 91 | 1014.3 |
| 20260507054016 | 13 | 113 | 1.6 | 4.8 | 0.00 | 0.23 | 0.20 | 92 | 1014.2 |
| 20260507053037 | 13 | 113 | 3.2 | 6.4 | 0.00 | 0.25 | 0.20 | 92 | 1014.2 |
| 20260507052017 | 13 | 113 | 1.6 | 4.8 | 0.00 | 0.25 | 0.20 | 93 | 1014.2 |
| 20260507051017 | 13 | 90 | 1.6 | 4.8 | 0.00 | 0.25 | 0.20 | 92 | 1014.2 |
| 20260507050016 | 13 | 90 | 3.2 | 6.4 | 0.00 | 0.28 | 0.20 | 92 | 1014.1 |
| 20260507045017 | 13 | 90 | 1.6 | 4.8 | 0.00 | 0.28 | 0.20 | 92 | 1014.0 |
| 20260507044016 | 13 | 113 | 1.6 | 3.2 | 0.00 | 0.28 | 0.20 | 92 | 1014.0 |
| 20260507043016 | 13 | 113 | 1.6 | 3.2 | 0.00 | 0.28 | 0.20 | 92 | 1013.8 |
| 20260507042016 | 13 | 0.0 | 3.2 | 0.00 | 0.28 | 0.20 | 92 | 1013.7 | |
| 20260507041036 | 13 | 113 | 1.6 | 4.8 | 0.00 | 0.28 | 0.20 | 92 | 1013.6 |